Regional Weather Roundup
Issued by NWS Boston, MA

Current Version | Previous Version | Text Only | Print | Product List | Glossary Off
Versions: 1 2 3 4 5 6 7 8 9 10 11 12 13 14 15 16 17 18 19 20 21 22 23 24 25 26 27 28 29 30 31 32 33 34 35 36 37 38 39 40 41 42 43 44 45 46 47 48 49 50
244 ASUS41 KBOX 241610 RWRBOX REGIONAL WEATHER ROUNDUP NATIONAL WEATHER SERVICE TAUNTON MA 1200 PM EDT MON JUL 24 2017 NOTE: "FAIR" INDICATES FEW OR NO CLOUDS BELOW 12,000 FEET WITH NO SIGNIFICANT WEATHER AND/OR OBSTRUCTIONS TO VISIBILITY. MAZALL-241700- EASTERN MASSACHUSETTS CITY SKY/WX TMP DP RH WIND PRES REMARKS BOSTON RAIN 59 56 89 E18 29.92F FOG BEVERLY LGT RAIN 59 56 89 E13 29.94F FOG LAWRENCE LGT RAIN 61 54 77 VRB7 29.98F BEDFORD HVY RAIN 58 56 93 E9 29.93F FOG BLUE HILL N/A 56 55 97 NE16G30 29.88F NORWOOD CLOUDY 60 57 89 NE12G18 29.89F MARSHFIELD CLOUDY 61 54 77 NE20G30 29.89F PLYMOUTH LGT RAIN 62 56 80 E12G20 29.88F TAUNTON LGT RAIN 59 56 89 NE8 29.86F NEW BEDFORD LGT RAIN 61 57 87 NE14 29.82F $$ MAZALL-241700- CAPE COD AND THE ISLANDS CITY SKY/WX TMP DP RH WIND PRES REMARKS FALMOUTH N/A N/A N/A N/A MISG N/A HYANNIS CLOUDY 64 58 80 E13 29.83F CHATHAM CLOUDY 64 58 80 E15 29.87F PROVINCETOWN CLOUDY 63 56 78 E15G22 29.89F NANTUCKET CLOUDY 64 63 96 E16 29.82F FOG MARTHAS VNYRD CLOUDY 65 62 90 E18G24 29.82F $$ MAZALL-241700- CENTRAL AND WESTERN MASSACHUSETTS CITY SKY/WX TMP DP RH WIND PRES REMARKS WORCESTER HVY RAIN 55 53 93 E18G25 29.91F FOG FITCHBURG RAIN 58 55 90 E7 29.96F ORANGE HVY RAIN 55 54 96 E8G17 29.94F FOG SPRINGFIELD LGT RAIN 57 54 89 NE9 29.90F FOG WESTFIELD LGT RAIN 58 57 97 E9 29.91S NORTH ADAMS LGT RAIN 58 53 84 E13 29.91R PITTSFIELD LGT RAIN 57 53 86 E7G17 29.90R $$ RIZALL-241700- RHODE ISLAND CITY SKY/WX TMP DP RH WIND PRES REMARKS PROVIDENCE RAIN 60 58 92 NE14G22 29.87F FOG NEWPORT HVY RAIN 60 59 96 NE10G20 29.83R FOG BLOCK ISLAND LGT RAIN 63 62 97 NE13 29.82F WESTERLY LGT RAIN 62 60 93 NE9 29.81F FOG $$ CTZALL-241700- CONNECTICUT CITY SKY/WX TMP DP RH WIND PRES REMARKS BRADLEY INTL RAIN 57 55 93 N14 29.90S FOG HARTFORD CLOUDY 57 55 93 NE13 29.88S FOG BRIDGEPORT RAIN 61 58 90 N14 29.82R FOG DANBURY RAIN 58 56 93 NE14G21 29.85F FOG GROTON LGT RAIN 62 59 90 NE13 29.79F FOG NEW HAVEN LGT RAIN 60 58 92 N12 29.82S FOG CHESTER LGT RAIN 59 57 94 VRB6G14 29.83F MERIDEN LGT RAIN 57 56 96 N8 29.85F WILLIMANTIC HVY RAIN 59 57 93 NE10 29.86F OXFORD LGT RAIN 55 50 82 NE12G24 29.86R FOG $$ MEZ002-015-021-024-NHZ003-005-008-011-012-014-VTZ005-008-241700- NORTHERN NEW ENGLAND CITY SKY/WX TMP DP RH WIND PRES REMARKS PORTLAND ME N/A N/A N/A N/A MISG N/A BANGOR ME CLOUDY 70 51 51 SE7 30.04S CONCORD NH LGT RAIN 60 57 89 E3 29.99R FOG MANCHESTER NH LGT RAIN 58 53 84 E6 29.98R FOG NASHUA NH RAIN 58 57 97 E12G17 29.98F FOG PORTSMOUTH NH LGT RAIN 61 53 75 E10 29.97F JAFFREY NH RAIN 56 56 100 VRB5 29.97S FOG KEENE NH RAIN 57 55 93 CALM 29.95F FOG BURLINGTON VT LGT RAIN 60 58 92 SW5 29.95R MT. WASHINGTON RAIN 37 37 100 SE39 N/A VSB 0 WCI 23 $$ NYZ052-076-241700- EASTERN NEW YORK CITY SKY/WX TMP DP RH WIND PRES REMARKS ALBANY CLOUDY 60 56 86 N6 29.91R NEW YORK CITY LGT RAIN 64 61 90 NE18 29.79R $$ ANZALL-241700- MARINE OBSERVATIONS STATION/POSITION TIME TEMP WIND PRES VSBY WAVE AIR SEA DIR/SP/G HT/PER (UTC) (F) (DEG/KT/KT) (MB) (MI) (FT/S) BOSTON BUOY 1550 61 65 70/ 21/ 25 1012.4F 4/ 5 BUZZARDS BAY 1500 63 60/ 23/ 25 1010.4F NANTUCKET SOUND 1550 71 1009.3F 4/ 5 MASS BAY-STELLWA 1504 63 64 90/ 17/ 23 1013.5R 3/ 5 ISLE OF SHOALS 1500 62 100/ 21/ 22 1014.5S S OF BLOCK IS 1555 73 N/A 8/ 6 $$ ......................KEY......................... SKY/WX - SKY CONDITION/PRESENT WEATHER TMP - TEMPERATURE IN FAHRENHEIT DWPT - DEWPOINT IN FAHRENHEIT RH - RELATIVE HUMIDITY IN PERCENT WIND - DIRECTION AND SPEED IN MPH PRES - MEAN SEA LEVEL PRESSURE IN INCHES OF HG WCI - WIND CHILL INDEX VSB - VISIBILITY IN MILES HX - HEAT INDEX TC - TEMPERATURE IN CELSIUS VRB - VARIABLE WIND DIRECTION N/A - NOT AVAILABLE

USA.gov is the U.S. government's official web portal to all federal, state and local government web resources and services.